Regional Weather Roundup
Issued by NWS

Home | Current Version | Previous Version | Graphics & Text | Print | Product List | Glossary On
Versions: 1 2 3 4 5 6 7 8 9 10 11 12 13 14 15 16 17 18 19 20 21 22 23 24 25 26 27 28 29 30 31 32 33 34 35 36 37 38 39 40 41 42 43 44 45 46 47 48 49 50
013
ASUS43 KTOP 200659
RWRKS

WEATHER ROUNDUP FOR KANSAS
NATIONAL WEATHER SERVICE GOODLAND KS
200 AM CDT SUN AUG 20 2017

NOTE:  "FAIR" INDICATES FEW OR NO CLOUDS BELOW 12,000 FEET WITH NO
SIGNIFICANT WEATHER AND/OR OBSTRUCTIONS TO VISIBILITY.

KSZ001>006-013>018-027>032-041>047-200800-
NORTHWEST KANSAS

CITY           SKY/WX    TMP DP  RH WIND       PRES   REMARKS
GOODLAND       CLEAR     72  51  47 S15       29.95S
HAYS           PTCLDY    76  66  71 S9        29.90F
HILL CITY      CLEAR     76  64  66 SW8       29.90R
RUSSELL        CLOUDY    76  66  71 S10       29.88F
$$

KSZ061>065-074>080-084>089-200800-
SOUTHWEST KANSAS

CITY           SKY/WX    TMP DP  RH WIND       PRES   REMARKS
DODGE CITY     MOCLDY    77  65  66 S10       29.96S
ELKHART          N/A     70  61  73 SW6         N/A
GARDEN CITY    PTCLDY    72  64  76 S9        29.97S
GREAT BEND     PTCLDY    77  67  71 S10       29.92S
LIBERAL        CLOUDY    72  66  81 S10       30.00S
$$

KSZ066>073-081>083-090>101-200800-
SOUTHEAST KANSAS

CITY           SKY/WX    TMP DP  RH WIND       PRES   REMARKS
CHANUTE        PTCLDY    78  76  93 S6        29.94F
COFFEYVILLE    CLOUDY    80  76  87 S8        29.93F
HUTCHINSON     CLEAR     80  70  71 S12       29.91F
MEDICINE LODGE   N/A     78  68  71 S8        29.93S
NEWTON         CLEAR     76  72  87 S10       29.93F
PARSONS        CLOUDY    80  75  84 S3        29.94F
WICHITA INTL   PTCLDY    77  72  84 S9        29.92F
WICHITA JABRA  CLEAR     78  74  87 S8        29.92F
WICHITA MCCONL CLEAR     79  71  75 S12       29.93F
WINFIELD       CLEAR     78  72  81 S7        29.95S
$$

KSZ007>012-019>026-033>040-048>060-102>105-200800-
NORTHEAST KANSAS

CITY           SKY/WX    TMP DP  RH WIND       PRES   REMARKS
CONCORDIA      CLEAR     78  68  71 S16G23    29.86R
EMPORIA        CLEAR     78  75  90 S12       29.90F
LAWRENCE       CLOUDY    78  75  90 SE7       29.89F
MANHATTAN      CLEAR     81  75  82 SW12      29.88R
OLATHE IND     CLOUDY    78  74  87 S8        29.92F
OLATHE EXE     CLOUDY    77  75  93 S7        29.92F
SALINA         PTCLDY    81  67  62 S10       29.87F
TOPEKA BILLARD PTCLDY    82  77  84 S5        29.89S
TOPEKA FORBES  PTCLDY    82  77  84 S13       29.89F
$$




USA.gov is the U.S. government's official web portal to all federal, state and local government web resources and services.